Tracking 22287 objects as of 27-Jan-2021
HD Live streaming from Space Station
objects crossing your sky now

STARLINK-1414

Track STARLINK-1414 now!
10-day predictions
STARLINK-1414 is classified as:


NORAD ID: 45690
Int'l Code: 2020-035AK
Perigee: 555.6 km
Apogee: 558.1 km
Inclination: 53.0 °
Period: 95.6 minutes
Semi major axis: 6927 km
RCS: Unknown
Launch date: June 4, 2020
Source: United States (US)
Launch site: AIR FORCE EASTERN TEST RANGE (AFETR)
aabbcc
Your satellite tracking list
Your tracking list is empty




NASA's NSSDC Master Catalog

Two Line Element Set (TLE):
1 45690U 20035AK  21027.52551328  .00001143  00000-0  97586-4 0  9995
2 45690  52.9991 158.6424 0001814 108.2053 251.9133 15.05590712 37441
Source of the keplerian elements: AFSPC